sat.trackr.live / text

‹ back to catalog

GAOFEN-1 02

NORAD 43259 · 2018-031A

PAYLOAD ACTIVE UNKNOWN

§ Identity

Operator
Country
PRC
Launch date
2018-03-31
Launch site
TAISC
Launch vehicle
Mass (kg)
RCS (m²)

Purposes: earth_obs

External: N2YO · Heavens-Above · Gunter

§ Orbital elements

Epoch: 2026-09-13T04:43:57.420768Z

Period
97.53 min
Inclination
98.0449°
Eccentricity
0.0004217
Mean motion
14.76478169 rev/d
Perigee alt
637.5 km
Apogee alt
643.4 km
Semi-major
7,018.6 km
B*
4.5419e-5
RAAN
318.4380°
Arg perigee
87.8435°
Mean anomaly
272.3257°
Rev number
45,568

§ Raw data

GAOFEN-1 021 43259U 18031A   26256.19719237  .00000265  00000+0  45419-4 0  99952 43259  98.0449 318.4380 0004217  87.8435 272.3257 14.76478169455684

JSON: /api/v1/satellites/43259 · /tle

For live sub-satellite position, see the globe view (requires WebGL).

§ Visibility from observer

Set your observer location to see the next 7 days of passes ≥ 10°. The values pass through the URL so the page stays shareable.

No JS? Fill the form by hand. The geolocation button needs JavaScript.